Home > Weather > Ansfelden > Past weeks

Flag for Austria Past Weather in Ansfelden, Upper Austria, Austria — Yesterday and Last 2 Weeks

Now
65 °F

Low clouds.


Feels Like: 65 °F
Forecast: 65 / 79 °F
Wind: N/A

Location: Linz / Hoersching-Flughafen

Current Time: Jul 26, 2016 at 6:39:47 AM

Latest Report: Jul 26, 2016 at 6:00 AM


Visibility: 4 mi

Pressure: 30.08 "Hg

Humidity: 95%

Dew Point: 64 °F

Location of AnsfeldenLocation

Past Weather in Ansfelden — Graph

°F

Ansfelden Temperature Yesterday

Maximum temperature yesterday: 80 °F (at 2:00 PM)
Minimum temperature yesterday: 64 °F (at 4:00 AM)
Average temperature yesterday: 71 °F

High & Low Weather Summary for the Past Weeks

 TemperatureHumidityPressure
High91 °F (Jul 11, 4:00 PM)97% (Jul 12, 4:00 AM)30.30 "Hg (Jul 12, 4:00 AM)
Low51 °F (Jul 15, 4:00 AM)35% (Jul 11, 3:00 PM)29.79 "Hg (Jul 11, 7:00 PM)
Average68 °F76%30.04 "Hg
* Reported Jul 11 5:00 AM — Jul 26 5:00 AM, Ansfelden, Weather by CustomWeather, © 2016

Note: Actual official high and low records may vary slightly from our data, if they occured in-between our weather recording intervals... More about our weather records

Advertising

Ansfelden Weather History for the Previous 24 Hours

Scroll right to see more
 ConditionsComfort  
Time TempWeatherWind HumidityBarometerVisibility
5:00 AM
Tue, Jul 26
65 °FPassing clouds.N/A95%30.07 "Hg4 mi
4:00 AM65 °FOvercast.N/A94%30.07 "Hg5 mi
3:00 AM64 °FPassing clouds.N/A96%30.07 "Hg6 mi
2:00 AM66 °FPassing clouds.N/A92%30.06 "Hg7 mi
1:00 AM67 °FPassing clouds.N/A89%30.07 "Hg7 mi
12:00 AM68 °FPassing clouds.5 mph86%30.06 "Hg13 mi
11:00 PM
Mon, Jul 25
69 °FPassing clouds.5 mph82%30.06 "Hg19 mi
10:00 PM70 °FPassing clouds.N/A85%30.06 "Hg22 mi
9:00 PM71 °FPassing clouds.N/A84%30.05 "Hg28 mi
8:00 PM73 °FOvercast.N/A81%30.03 "Hg22 mi
7:00 PM73 °FOvercast.N/A79%30.02 "Hg28 mi
6:00 PM72 °FOvercast.N/A84%30.03 "Hg28 mi
5:00 PM69 °FOvercast.3 mph88%30.03 "Hg25 mi
4:00 PM74 °FOvercast.5 mph73%30.01 "Hg25 mi
3:00 PM79 °FOvercast.8 mph56%29.99 "Hg3 mi
2:00 PM80 °FPartly sunny.5 mph59%29.98 "Hg17 mi
1:00 PM79 °FPartly sunny.3 mph63%30.00 "Hg12 mi
12:00 PM77 °FPartly sunny.N/A73%30.02 "Hg22 mi
11:00 AM74 °FPartly sunny.5 mph73%30.04 "Hg19 mi
10:00 AM74 °FPartly sunny.N/A75%30.03 "Hg12 mi
9:00 AM72 °FPartly sunny.N/A81%30.05 "Hg14 mi
8:00 AM69 °FPartly sunny.N/A84%30.05 "Hg14 mi
7:00 AM66 °FPartly sunny.N/A93%30.06 "Hg6 mi
6:00 AM64 °FPartly sunny.N/A93%30.06 "Hg7 mi
Weather by CustomWeather, © 2016

See weather overviewHow to use our weather pages